Regional Weather Roundup
Issued by NWS Upton, NY

Current Version | Previous Version | Graphics & Text | Print | Product List | Glossary Off
Versions: 1 2 3 4 5 6 7 8 9 10 11 12 13 14 15 16 17 18 19 20 21 22 23 24 25 26 27 28 29 30 31 32 33 34 35 36 37 38 39 40 41 42 43 44 45 46 47 48 49 50

563
ASUS41 KOKX 290005
RWROKX

REGIONAL WEATHER ROUNDUP
NATIONAL WEATHER SERVICE NEW YORK NY
800 PM EDT WED SEP 28 2016

NOTE: "FAIR" INDICATES FEW OR NO CLOUDS BELOW 12,000 FEET WITH NO
SIGNIFICANT WEATHER AND/OR OBSTRUCTIONS TO VISIBILITY.

NYZ071-072-176-178-NJZ106-104-290100-
NEW YORK CITY METRO AREA

CITY           SKY/WX    TMP DP  RH WIND       PRES   REMARKS
Central Park   CLOUDY    60  55  83 VRB7      30.23R HAZE
LaGuardia APRT DRIZZLE   63  58  83 NE21G30   30.20R
Kennedy INTL   DRIZZLE   61  56  83 NE14      30.20R
Newark/Liberty LGT RAIN  61  56  83 NE15G23   30.19R
Bronx Bot Gard   N/A     59  52  77 SE2       30.22S
Wall St Helipt CLOUDY   N/A N/A N/A NE15G25   30.19S
Teterboro      DRIZZLE   61  53  75 NE9G18    30.20R
$$

NYZ177-179-078>081-290100-
LONG ISLAND NEW YORK

CITY           SKY/WX    TMP DP  RH WIND       PRES   REMARKS
Farmingdale    CLOUDY    59  56  89 NE10G18   30.21R FOG
MacArthur/ISP  CLOUDY    59  54  83 NE14G22   30.21R
Shirley        CLOUDY    59  54  83 NE10G17   30.22R
Riverhead      NOT AVBL
Westhampton    CLOUDY    60  54  80 NE14G22   30.22R
Southampton      N/A     59  55  88 NE8       30.18R
Bridgehampton    N/A     59  55  88 E6        30.07R
East Hampton   CLOUDY    58  54  85 NE13G18   30.20R
Montauk          N/A     60  56  86 NE13G23   30.23R
$$

NYZ052-065-067-290100-
HUDSON VALLEY

CITY           SKY/WX    TMP DP  RH WIND       PRES   REMARKS
White Plains   MOCLDY    58  52  80 NE12G18   30.22R
Newburgh       CLOUDY    59  54  82 E17G23    30.25R
Montgomery     CLOUDY    60  51  72 E10       30.22R
Poughkeepsie   CLOUDY    58  50  75 E9        30.24R
Albany         MOCLDY    60  47  61 E7        30.28R
$$

NJZ001-105-106-008-010-013-015-019>022-104-290100-
NEW JERSEY

CITY           SKY/WX    TMP DP  RH WIND       PRES   REMARKS
Newark/Liberty LGT RAIN  61  56  83 NE15G23   30.19R
Teterboro      DRIZZLE   61  53  75 NE9G18    30.20R
Caldwell       CLOUDY    61  53  75 NE9       30.21R
Morristown     CLOUDY    61  55  82 NE7G17    30.21R
Somerville     CLOUDY    63  54  72 CALM      30.17R
Linden         NOT AVBL
Sussex         CLOUDY    60  53  77 E9        30.21R
Abdover          N/A     60  53  77 CALM      30.21R
Trenton        CLOUDY    62  57  83 E13       30.15R
Millville      LGT RAIN  64  64 100 NE12      30.11R FOG
Atlantic City  LGT RAIN  65  63  93 NE17G25   30.12R FOG
Wrightstown    CLOUDY    61  60  95 NE10      30.12S
Toms River     LGT RAIN  63  62  97 NE15G22   30.17R FOG
Belmar         LGT RAIN  61  60  97 NE16G22   30.18R FOG
$$

PAZ047>061-062-071-290100-
EASTERN PENNSYLVANIA

CITY           SKY/WX    TMP DP  RH WIND       PRES   REMARKS
Philadelphia   LGT RAIN  64  59  83 E16G23    30.13R
Allentown      CLOUDY    64  55  72 E13       30.16R
Scranton       CLOUDY    61  55  81 NE5       30.17R
$$

CTZ002-004>006-009-010-012-RIZ004-006-007-MAZ004-011-015-290100-
SOUTHERN NEW ENGLAND
 IN CT

CITY           SKY/WX    TMP DP  RH WIND       PRES   REMARKS
Bradley INTL   CLOUDY    56  48  74 NE12      30.29R
Hartford       CLOUDY    57  50  77 N14       30.27R
Danbury        CLOUDY    55  50  83 NE10      30.25R
Wtrbury/Oxford CLOUDY    55  46  71 E13G20    30.26R
Bridgeport     CLOUDY    60  51  72 NE14      30.24R
Meriden        CLOUDY    58  49  72 NE7G22    30.26R
New Haven      CLOUDY    58  50  75 N13       30.24R
Chester        CLOUDY    57  52  82 NE8G15    30.24R
Groton         CLOUDY    59  52  77 N13       30.23R
Wilimantic     CLOUDY    57  52  83 NE13      30.27R

 IN RI

CITY           SKY/WX    TMP DP  RH WIND       PRES   REMARKS
Providence     CLOUDY    56  53  90 NE15      30.26R FOG
Block Island   CLOUDY    59  56  89 NE17G26   30.22R
Westerly       CLOUDY    58  52  80 NE13G20   30.23R
 IN MA

CITY           SKY/WX    TMP DP  RH WIND       PRES   REMARKS
Boston         CLOUDY    58  52  80 NE17G26   30.29R
Worcester      CLOUDY    51  48  89 NE12G20   30.29R
Westfield      CLOUDY    56  48  74 NE9       30.30R
Provincetown   CLOUDY    60  58  92 NE18G25   30.26R
Nantucket      CLOUDY    60  59  96 NE16G25   30.19R FOG
$$

ANZ330-335-338-340-345-350-353-355-290100-
COASTAL MARINE OBSERVATIONS


STATION/POSITION TIME  SKY/WX   TEMP    WIND        PRES    VSBY  WAVE
                                AIR SEA DIR/SP/G                  HT/PER
                 (UTC)          (F)     (DEG/KT/KT) (MB)    (MI)  (FT/S)
NY HARB ENTRANCE 2250            64 71   60/ 23/ 27 1020.3          7/ 7
20S FIRE ISLAND  2250            63 69   50/ 25/ 31 1019.7          9/ 8
GREAT SOUTH BAY  2315            61 69   60/ 17/ 23   N/A
23 SSW MONTAUK P 2250            62 67   40/ 27/ 33 1020.8          9/ 7
15 E BARNEGAT LI 2330               70                N/A          10/ 8
HUDSON CANYON    2250            66 69              1018.6          7/ 7
KINGS POINT      2330            60 72              1022.5
EXECUTION ROCKS  2345            63      60/ 19/ 25   N/A
CENTRAL LI SOUND NOT AVBL
EASTERN LI SOUND NOT AVBL
ROBBINS REEF     2330            61      50/ 19/ 21 1022.2
$$


>>>>>>>>>>>>>>>>>>>>>>>>>>>> KEY <<<<<<<<<<<<<<<<<<<<<<<<<<<
>                                                          <
>     SKY/WX - Sky Condition/Present Weather               <
>     TMP    - Temperature in Fahrenheit                   <
>     DP     - Dew Point in Fahrenheit                     <
>     RH     - Relative Humidity in Percent                <
>     WIND   - Direction (from) and Speed in MPH           <
>     PRES   - Mean Sea Level Pressure (inches of Hg)      <
>     WCI    - Wind Chill Index                            <
>     VSB    - VISIBILITY IN MILES                         <
>     HX     - HEAT INDEX                                  <
>     TC     - TEMPERATURE IN CELSIUS                      <
>     VRB    - VARIABLE WIND DIRECTION                     <
>                                                          <
>>>>>>>>>>>>>>>>>>>>>>>>>>>> KEY <<<<<<<<<<<<<<<<<<<<<<<<<<<




USA.gov is the U.S. government's official web portal to all federal, state and local government web resources and services.